FW8044 Weather Reports


time (UTC)temp
C
wind
direction
speed
KPH
gust
KPH
rain 1hr
cm
rain 24hr
cm
rain mn
cm
humidity
%
barometer
mb
20260906172048 27 144 14.5 20.9 0.00 0.00 0.00 77 1018.2
20260906171547 27 137 3.2 12.9 0.00 0.00 0.00 79 1018.2
20260906171043 27 244 1.6 8.0 0.00 0.00 0.00 79 1018.0
20260906170539 27 141 4.8 25.7 0.00 0.00 0.00 78 1018.0
20260906170038 27 159 9.7 14.5 0.00 0.00 0.00 77 1018.1
20260906165535 27 108 1.6 9.7 0.00 0.00 0.00 78 1017.9
20260906165029 27 133 8.0 14.5 0.00 0.00 0.00 78 1018.1
20260906164529 27 112 9.7 12.9 0.00 0.00 0.00 78 1018.2
20260906164025 27 56 4.8 9.7 0.00 0.00 0.00 77 1018.1
20260906163520 28 124 6.4 11.3 0.00 0.00 0.00 76 1018.0
20260906163016 28 113 1.6 12.9 0.00 0.00 0.00 76 1018.0
20260906162512 27 38 3.2 16.1 0.00 0.00 0.00 77 1018.3
20260906162008 28 131 14.5 17.7 0.00 0.00 0.00 75 1018.2
20260906161502 27 138 12.9 20.9 0.00 0.00 0.00 76 1018.3
20260906161001 27 141 11.3 25.7 0.00 0.00 0.00 77 1018.3
20260906160454 27 255 4.8 22.5 0.00 0.00 0.00 77 1018.2
20260906155953 27 115 8.0 16.1 0.00 0.00 0.00 77 1018.4
20260906155451 27 139 8.0 14.5 0.00 0.00 0.00 78 1018.5
20260906154948 27 246 4.8 27.4 0.00 0.00 0.00 79 1018.5
20260906154443 27 133 12.9 16.1 0.00 0.00 0.00 78 1018.3
20260906153941 26 114 1.6 3.2 0.00 0.00 0.00 82 1018.5
20260906153440 26 246 3.2 12.9 0.00 0.00 0.00 80 1018.3
20260906152935 26 109 4.8 9.7 0.00 0.00 0.00 80 1018.4
20260906152430 26 314 1.6 4.8 0.00 0.00 0.00 83 1018.6
20260906151929 25 161 1.6 11.3 0.00 0.00 0.00 85 1018.6
20260906151425 25 152 8.0 9.7 0.00 0.00 0.00 83 1018.6
20260906150920 25 107 9.7 14.5 0.00 0.00 0.00 83 1018.5
20260906150415 25 118 6.4 11.3 0.00 0.00 0.00 83 1018.3
20260906145914 25 128 8.0 12.9 0.00 0.00 0.00 85 1018.5
20260906145413 25 144 4.8 9.7 0.00 0.00 0.00 85 1018.7
20260906144908 25 147 6.4 9.7 0.00 0.00 0.00 85 1018.4
20260906144403 25 112 8.0 9.7 0.00 0.00 0.00 86 1018.6
20260906143858 25 137 3.2 9.7 0.00 0.00 0.00 85 1018.6
20260906143354 25 126 8.0 11.3 0.00 0.00 0.00 86 1018.7
20260906142850 25 169 6.4 9.7 0.00 0.00 0.00 86 1018.7
20260906142344 24 124 4.8 8.0 0.00 0.00 0.00 87 1018.7
20260906141844 24 105 4.8 8.0 0.00 0.00 0.00 87 1018.3
20260906141339 24 134 3.2 9.7 0.00 0.00 0.00 88 1018.6
20260906140838 23 135 4.8 11.3 0.00 0.00 0.00 89 1018.8
20260906140333 23 154 6.4 8.0 0.00 0.00 0.00 90 1018.5
20260906135830 23 152 1.6 8.0 0.00 0.00 0.00 91 1018.7
20260906135320 23 170 8.0 11.3 0.00 0.00 0.00 91 1018.6
20260906134815 23 151 4.8 8.0 0.00 0.00 0.00 92 1018.8
20260906134310 23 151 8.0 9.7 0.00 0.00 0.00 92 1018.8
20260906133806 22 237 3.2 4.8 0.00 0.00 0.00 92 1018.6
20260906133301 22 147 3.2 9.7 0.00 0.00 0.00 92 1018.4
20260906132757 22 148 4.8 11.3 0.00 0.00 0.00 92 1018.4
20260906132252 22 141 4.8 8.0 0.00 0.00 0.00 93 1018.4
20260906131748 22 199 4.8 9.7 0.00 0.00 0.00 93 1018.3
20260906131248 22 120 4.8 8.0 0.00 0.00 0.00 93 1018.8
20260906130743 22 117 1.6 9.7 0.00 0.00 0.00 93 1018.7
20260906130238 22 146 3.2 8.0 0.00 0.00 0.00 93 1019.0
20260906125737 22 137 3.2 9.7 0.00 0.00 0.00 93 1018.7
20260906125235 22 147 4.8 8.0 0.00 0.00 0.00 93 1018.7
20260906124730 22 154 1.6 8.0 0.00 0.00 0.00 94 1018.4
20260906124226 22 228 1.6 3.2 0.00 0.00 0.00 94 1018.3
20260906123724 22 123 4.8 8.0 0.00 0.00 0.00 94 1018.2
20260906123220 22 150 1.6 4.8 0.00 0.00 0.00 95 1018.3
20260906122719 22 169 1.6 4.8 0.00 0.00 0.00 95 1018.0
20260906122214 22 137 3.2 4.8 0.00 0.00 0.00 95 1018.1
20260906121711 22 114 4.8 8.0 0.00 0.00 0.00 95 1018.0
20260906121207 22 157 3.2 4.8 0.00 0.00 0.00 95 1017.8
20260906120703 22 205 3.2 4.8 0.00 0.00 0.00 95 1018.0
20260906120159 22 113 4.8 8.0 0.00 0.00 0.00 95 1017.8
20260906115654 22 240 0.0 4.8 0.00 0.00 0.00 95 1017.7
20260906115149 22 56 3.2 4.8 0.00 0.00 0.00 95 1017.8
20260906114648 22 184 0.0 1.6 0.00 0.00 0.00 95 1017.6
20260906114143 22 178 3.2 9.7 0.00 0.00 0.00 95 1017.5
20260906113638 22 103 0.0 4.8 0.00 0.00 0.00 95 1017.1
20260906113138 22 165 1.6 4.8 0.00 0.00 0.00 95 1017.2
20260906112637 22 128 1.6 8.0 0.00 0.00 0.00 95 1017.2
20260906112135 22 177 0.0 8.0 0.00 0.00 0.00 95 1017.3
20260906111633 22 85 1.6 8.0 0.00 0.00 0.00 95 1017.3
20260906111128 22 89 1.6 8.0 0.00 0.00 0.00 95 1017.5
20260906110623 22 72 4.8 4.8 0.00 0.00 0.00 94 1017.3
20260906110118 22 263 0.0 3.2 0.00 0.00 0.00 94 1017.5
20260906105612 22 132 1.6 8.0 0.00 0.00 0.00 94 1017.3
20260906105109 22 129 1.6 8.0 0.00 0.00 0.00 94 1017.6
20260906104608 22 93 1.6 4.8 0.00 0.00 0.00 94 1017.6
20260906104102 22 137 1.6 3.2 0.00 0.00 0.00 94 1017.6
20260906103600 22 131 1.6 4.8 0.00 0.00 0.00 94 1017.5
20260906103056 22 147 1.6 3.2 0.00 0.00 0.00 94 1017.5
20260906102555 22 81 3.2 4.8 0.00 0.00 0.00 94 1017.7
20260906102050 22 117 1.6 3.2 0.00 0.00 0.00 94 1017.6
20260906101545 22 115 3.2 4.8 0.00 0.00 0.00 94 1017.6
20260906101039 22 121 1.6 4.8 0.00 0.00 0.00 94 1017.8
20260906100536 22 99 1.6 8.0 0.00 0.00 0.00 93 1017.5
20260906100036 22 97 3.2 4.8 0.00 0.00 0.00 93 1017.5
20260906095530 22 112 1.6 3.2 0.00 0.00 0.00 93 1017.5
20260906095026 22 159 1.6 3.2 0.00 0.00 0.00 93 1017.4
20260906094525 22 99 1.6 4.8 0.00 0.00 0.00 93 1017.5
20260906094021 22 118 3.2 3.2 0.00 0.00 0.00 93 1017.4
20260906093517 22 146 1.6 9.7 0.00 0.00 0.00 93 1017.3
20260906093016 22 34 1.6 8.0 0.00 0.00 0.00 93 1017.3
20260906092511 23 181 1.6 8.0 0.00 0.00 0.00 93 1017.4
20260906092006 23 121 0.0 8.0 0.00 0.00 0.00 93 1017.3
20260906091502 23 107 1.6 9.7 0.00 0.00 0.00 92 1017.3
20260906090959 23 62 3.2 4.8 0.00 0.00 0.00 92 1017.1
20260906090453 23 209 4.8 11.3 0.00 0.00 0.00 92 1017.2
20260906085953 23 111 1.6 8.0 0.00 0.00 0.00 92 1016.9
20260906085452 23 188 4.8 8.0 0.00 0.00 0.00 92 1016.8
20260906084951 23 193 1.6 9.7 0.00 0.00 0.00 92 1016.8
20260906084446 23 172 1.6 4.8 0.00 0.00 0.00 92 1016.7
20260906083945 23 285 1.6 4.8 0.00 0.00 0.00 92 1016.7
20260906083441 23 248 0.0 8.0 0.00 0.00 0.00 92 1016.7
20260906082940 23 115 6.4 8.0 0.00 0.00 0.00 92 1016.8
20260906082436 23 50 1.6 8.0 0.00 0.00 0.00 92 1016.9
20260906081931 23 251 1.6 9.7 0.00 0.00 0.00 92 1016.9
20260906081427 23 172 4.8 14.5 0.00 0.00 0.00 92 1016.6
20260906080923 23 148 6.4 11.3 0.00 0.00 0.00 92 1016.6
20260906080420 23 274 1.6 1.6 0.00 0.00 0.00 92 1016.8
20260906075919 23 103 1.6 9.7 0.00 0.00 0.00 92 1016.8
20260906075414 23 103 1.6 3.2 0.00 0.00 0.00 92 1016.4
20260906074909 23 135 4.8 8.0 0.00 0.00 0.00 92 1016.6
20260906074409 23 81 3.2 4.8 0.00 0.00 0.00 92 1016.9
20260906073908 23 73 3.2 4.8 0.00 0.00 0.00 91 1016.9
20260906073403 23 187 1.6 9.7 0.00 0.00 0.00 92 1016.8
20260906072859 23 94 4.8 9.7 0.00 0.00 0.00 92 1017.0
20260906072354 24 81 4.8 8.0 0.00 0.00 0.00 92 1017.1
20260906071850 24 111 3.2 4.8 0.00 0.00 0.00 92 1016.8
20260906071345 24 106 3.2 4.8 0.00 0.00 0.00 92 1016.7
20260906070841 24 103 3.2 3.2 0.00 0.00 0.00 92 1016.7
20260906070337 24 132 3.2 4.8 0.00 0.00 0.00 91 1016.7
20260906065832 25 103 4.8 9.7 0.00 0.00 0.00 91 1016.6
20260906065327 25 48 4.8 9.7 0.00 0.00 0.00 90 1016.7
20260906064822 25 137 4.8 9.7 0.00 0.00 0.00 90 1017.0
20260906064319 25 168 4.8 9.7 0.00 0.00 0.00 90 1016.8
20260906063813 25 61 1.6 4.8 0.00 0.00 0.00 91 1016.8
20260906063309 25 133 4.8 11.3 0.00 0.00 0.00 92 1016.9
20260906062803 25 109 3.2 9.7 0.00 0.00 0.00 93 1016.9
20260906062305 25 134 4.8 8.0 0.00 0.00 0.00 94 1016.8
20260906061758 25 146 1.6 8.0 0.00 0.00 0.00 94 1017.1
20260906061255 25 172 1.6 3.2 0.00 0.00 0.00 94 1016.7
20260906060749 25 100 1.6 4.8 0.00 0.00 0.00 94 1016.9
20260906060247 25 76 1.6 3.2 0.00 0.00 0.00 93 1016.8
20260906055742 25 117 1.6 8.0 0.00 0.00 0.00 93 1016.8
20260906055238 25 72 4.8 4.8 0.00 0.00 0.00 93 1016.9
20260906054733 25 181 1.6 4.8 0.00 0.00 0.00 93 1016.8
20260906054228 25 114 1.6 3.2 0.00 0.00 0.00 93 1017.0
20260906053725 25 94 1.6 4.8 0.00 0.00 0.00 92 1016.7
20260906053220 25 135 3.2 8.0 0.00 0.00 0.00 92 1016.8
20260906052715 25 200 0.0 1.6 0.00 0.00 0.00 92 1016.9
20260906052211 25 123 8.0 11.3 0.00 0.00 0.00 92 1016.6
20260906051708 26 64 0.0 3.2 0.00 0.00 0.00 91 1016.7
20260906051207 26 354 1.6 3.2 0.00 0.00 0.00 91 1016.8
20260906050703 26 1 1.6 3.2 0.00 0.00 0.00 90 1016.7
20260906050158 26 60 1.6 8.0 0.00 0.00 0.00 90 1016.7
20260906045656 26 116 1.6 3.2 0.00 0.00 0.00 90 1016.6
20260906045151 26 141 0.0 4.8 0.00 0.00 0.00 90 1016.9
20260906044647 26 78 1.6 3.2 0.00 0.00 0.00 90 1016.6
20260906044142 26 143 4.8 4.8 0.00 0.00 0.00 89 1016.5
20260906043639 26 53 0.0 4.8 0.00 0.00 0.00 89 1016.5
20260906043134 26 0 0.0 1.6 0.00 0.00 0.00 89 1016.5
20260906042633 26 98 1.6 3.2 0.00 0.00 0.00 89 1016.7
20260906042127 26 320 1.6 1.6 0.00 0.00 0.00 88 1016.4
20260906041623 26 75 1.6 3.2 0.00 0.00 0.00 88 1016.4
20260906041118 26 39 0.0 1.6 0.00 0.00 0.00 88 1016.3
20260906040614 26 330 0.0 1.6 0.00 0.00 0.00 87 1016.5
20260906040109 26 56 1.6 1.6 0.00 0.00 0.00 87 1016.5
20260906035604 27 322 1.6 4.8 0.00 0.00 0.00 87 1016.5
20260906035100 27 269 1.6 3.2 0.00 0.00 0.00 86 1016.2
20260906034600 27 314 0.0 3.2 0.00 0.00 0.00 86 1016.3
20260906034054 27 310 0.0 3.2 0.00 0.00 0.00 86 1016.1
20260906033550 27 55 1.6 3.2 0.00 0.00 0.00 85 1016.3
20260906033045 27 19 0.0 3.2 0.00 0.00 0.00 85 1016.1
20260906032542 27 317 1.6 1.6 0.00 0.00 0.00 85 1016.3
20260906032036 27 20 0.0 1.6 0.00 0.00 0.00 85 1016.3
20260906031532 27 348 1.6 1.6 0.00 0.00 0.00 84 1016.2
20260906031028 27 245 0.0 1.6 0.00 0.00 0.00 84 1016.5
20260906030527 27 338 0.0 1.6 0.00 0.00 0.00 84 1016.1
20260906030026 27 83 1.6 3.2 0.00 0.00 0.00 84 1016.0
20260906025526 27 39 1.6 3.2 0.00 0.00 0.00 84 1015.8
20260906025025 27 202 0.0 3.2 0.00 0.00 0.00 83 1015.7
20260906024520 27 36 1.6 3.2 0.00 0.00 0.00 83 1015.8
20260906024020 27 349 1.6 1.6 0.00 0.00 0.00 83 1016.0
20260906023516 27 198 0.0 1.6 0.00 0.00 0.00 83 1015.7
20260906023010 27 113 1.6 1.6 0.00 0.00 0.00 82 1015.6
20260906022505 28 344 1.6 1.6 0.00 0.00 0.00 82 1015.4
20260906021955 28 53 1.6 1.6 0.00 0.00 0.00 82 1015.4
20260906021450 28 7 1.6 1.6 0.00 0.00 0.00 82 1015.5
20260906020944 28 64 1.6 3.2 0.00 0.00 0.00 81 1015.2
20260906020439 28 357 1.6 3.2 0.00 0.00 0.00 81 1015.3
20260906015933 28 242 0.0 4.8 0.00 0.00 0.00 81 1015.3
20260906015432 28 343 1.6 1.6 0.00 0.00 0.00 81 1015.1
20260906014926 28 330 1.6 3.2 0.00 0.00 0.00 81 1015.0
20260906014426 28 20 1.6 3.2 0.00 0.00 0.00 80 1014.9
20260906013922 28 21 3.2 4.8 0.00 0.00 0.00 80 1014.9
20260906013418 28 28 1.6 4.8 0.00 0.00 0.00 80 1014.9
20260906012913 28 33 1.6 1.6 0.00 0.00 0.00 80 1014.8
20260906012408 28 343 1.6 3.2 0.00 0.00 0.00 79 1014.9
20260906011907 28 2 1.6 3.2 0.00 0.00 0.00 79 1015.0
20260906011403 29 45 3.2 3.2 0.00 0.00 0.00 79 1014.8
20260906010858 29 337 0.0 1.6 0.00 0.00 0.00 79 1014.8
20260906010354 29 285 1.6 1.6 0.00 0.00 0.00 78 1014.9
20260906005850 29 10 1.6 4.8 0.00 0.00 0.00 78 1014.8
20260906005349 29 323 1.6 8.0 0.00 0.00 0.00 77 1014.6
20260906004847 30 351 1.6 1.6 0.00 0.00 0.00 77 1014.7
20260906004342 30 218 1.6 1.6 0.00 0.00 0.00 76 1014.5
20260906003837 30 189 1.6 8.0 0.00 0.00 0.00 76 1014.8
20260906003332 30 49 1.6 4.8 0.00 0.00 0.00 75 1014.6
20260906002828 30 349 3.2 9.7 0.00 0.00 0.00 75 1014.8
20260906002327 30 286 0.0 4.8 0.00 0.00 0.00 75 1014.6
20260906001823 30 306 1.6 4.8 0.00 0.00 0.00 74 1014.8
20260906001318 30 132 4.8 14.5 0.00 0.00 0.00 74 1014.5
20260906000813 30 301 1.6 8.0 0.00 0.00 0.00 74 1014.6
20260906000308 31 124 1.6 4.8 0.00 0.00 0.00 73 1014.7
20260905235803 31 15 4.8 11.3 0.00 0.00 0.00 72 1014.7
20260905235306 31 213 1.6 8.0 0.00 0.00 0.00 71 1014.4
20260905234758 31 208 3.2 17.7 0.00 0.00 0.00 70 1014.3
20260905234253 31 235 3.2 11.3 0.00 0.00 0.00 70 1014.5
20260905233748 31 58 3.2 17.7 0.00 0.00 0.00 69 1014.5
20260905233248 31 266 1.6 4.8 0.00 0.00 0.00 70 1014.5
20260905232747 31 56 1.6 11.3 0.00 0.00 0.00 69 1014.6
20260905232243 31 58 6.4 14.5 0.00 0.00 0.00 67 1014.6
20260905231739 32 171 3.2 17.7 0.00 0.00 0.00 67 1014.7
20260905231234 32 93 3.2 22.5 0.00 0.00 0.00 67 1014.5
20260905230730 32 89 3.2 4.8 0.00 0.00 0.00 66 1014.5
20260905230228 32 118 1.6 8.0 0.00 0.00 0.00 66 1014.4
20260905225728 32 56 1.6 3.2 0.00 0.00 0.00 65 1014.6
20260905225223 32 212 1.6 11.3 0.00 0.00 0.00 64 1014.6
20260905224722 32 238 3.2 4.8 0.00 0.00 0.00 63 1014.6
20260905224218 32 167 3.2 4.8 0.00 0.00 0.00 63 1014.4
20260905223714 32 238 1.6 8.0 0.00 0.00 0.00 63 1014.6
20260905223210 33 83 1.6 12.9 0.00 0.00 0.00 63 1014.3
20260905222706 33 336 0.0 3.2 0.00 0.00 0.00 62 1014.3
20260905222205 33 110 1.6 3.2 0.00 0.00 0.00 62 1014.3
20260905221701 33 336 1.6 4.8 0.00 0.00 0.00 63 1014.4
20260905221158 33 323 1.6 4.8 0.00 0.00 0.00 62 1014.3
20260905220653 33 116 8.0 11.3 0.00 0.00 0.00 61 1014.5
20260905220149 33 295 4.8 8.0 0.00 0.00 0.00 62 1014.3
20260905215648 32 73 3.2 4.8 0.00 0.00 0.00 64 1014.5
20260905215144 32 148 3.2 4.8 0.00 0.00 0.00 66 1014.4
20260905214640 33 148 4.8 4.8 0.00 0.00 0.00 63 1014.5
20260905214135 33 149 1.6 4.8 0.00 0.00 0.00 63 1014.4
20260905213630 33 49 1.6 4.8 0.00 0.00 0.00 63 1014.5
20260905213125 33 288 4.8 4.8 0.00 0.00 0.00 62 1014.7
20260905212621 33 15 3.2 4.8 0.00 0.00 0.00 63 1014.4
20260905212120 32 10 1.6 4.8 0.00 0.00 0.00 64 1014.7
20260905211615 32 74 1.6 4.8 0.00 0.00 0.00 64 1014.5
20260905211111 33 161 1.6 4.8 0.00 0.00 0.00 62 1014.5
20260905210607 33 51 1.6 12.9 0.00 0.00 0.00 62 1014.5
20260905205601 33 229 1.6 9.7 0.00 0.00 0.00 63 1014.1
20260905205100 33 353 4.8 9.7 0.00 0.00 0.00 63 1014.4
20260905204555 33 78 9.7 16.1 0.00 0.00 0.00 62 1014.4
20260905204050 33 64 3.2 4.8 0.00 0.00 0.00 62 1014.2
20260905203550 33 106 3.2 9.7 0.00 0.00 0.00 62 1014.3
20260905203045 33 167 3.2 12.9 0.00 0.00 0.00 60 1014.6
20260905202541 33 56 3.2 3.2 0.00 0.00 0.00 61 1014.6
20260905202036 33 70 6.4 9.7 0.00 0.00 0.00 61 1014.6
20260905201532 33 115 4.8 12.9 0.00 0.00 0.00 61 1014.7
20260905201031 33 236 1.6 8.0 0.00 0.00 0.00 63 1014.8
20260905200527 33 59 1.6 3.2 0.00 0.00 0.00 65 1014.8
20260905200026 33 239 0.0 12.9 0.00 0.00 0.00 64 1014.8
20260905195520 35 33 4.8 11.3 0.00 0.00 0.00 60 1014.9
20260905195016 34 54 1.6 8.0 0.00 0.00 0.00 62 1015.0
20260905194510 33 146 1.6 4.8 0.00 0.00 0.00 62 1014.8
20260905194009 35 133 1.6 3.2 0.00 0.00 0.00 59 1015.2
20260905193504 35 20 1.6 8.0 0.00 0.00 0.00 60 1015.2
20260905192959 33 141 3.2 3.2 0.00 0.00 0.00 61 1015.4
20260905192454 33 119 4.8 4.8 0.00 0.00 0.00 62 1015.5
20260905191950 33 14 1.6 3.2 0.00 0.00 0.00 61 1015.5
20260905191444 33 22 1.6 3.2 0.00 0.00 0.00 62 1015.6
20260905190943 33 329 4.8 12.9 0.00 0.00 0.00 62 1015.7
20260905190441 33 8 6.4 9.7 0.00 0.00 0.00 62 1016.1
20260905185940 32 8 1.6 8.0 0.00 0.00 0.00 66 1016.2
20260905185435 33 348 4.8 9.7 0.00 0.00 0.00 63 1016.0
20260905184933 33 62 6.4 8.0 0.00 0.00 0.00 64 1016.0
20260905184429 33 31 1.6 4.8 0.00 0.00 0.00 66 1016.2
20260905183928 33 319 6.4 9.7 0.00 0.00 0.00 63 1016.2
20260905183422 33 79 3.2 9.7 0.00 0.00 0.00 62 1016.2
20260905182917 33 317 1.6 9.7 0.00 0.00 0.00 61 1016.3
20260905182416 33 259 1.6 8.0 0.00 0.00 0.00 64 1016.4
20260905181912 32 342 8.0 9.7 0.00 0.00 0.00 62 1016.3
20260905181407 32 42 1.6 12.9 0.00 0.00 0.00 62 1016.2
20260905180905 32 259 1.6 8.0 0.00 0.00 0.00 62 1016.4
20260905180401 32 94 4.8 8.0 0.00 0.00 0.00 62 1016.3
20260905175855 33 281 4.8 14.5 0.00 0.00 0.00 60 1016.3
20260905175355 33 349 1.6 4.8 0.00 0.00 0.00 60 1016.5
20260905174850 33 350 8.0 14.5 0.00 0.00 0.00 60 1016.6
20260905174346 33 294 3.2 16.1 0.00 0.00 0.00 61 1016.5
20260905173841 33 13 9.7 17.7 0.00 0.00 0.00 58 1016.6
20260905173337 33 302 3.2 16.1 0.00 0.00 0.00 59 1016.6
20260905172832 33 257 3.2 8.0 0.00 0.00 0.00 58 1016.5